{"data":{"norad_id":58932,"intl_designator":"2024-027B","name":"STARLINK-31378","alt_names":[],"object_type":"PAYLOAD","status":"ACTIVE","operator":null,"country":"US","launch_date":"2024-02-10","launch_site_code":"AFWTR","launch_vehicle":null,"mission":null,"orbit_class":"UNKNOWN","rcs_meters":null,"size_class":null,"mass_kg":null,"dimensions":null,"purposes":["comms"],"wikipedia_slug":null,"has_3d_model":false,"image_url":null,"decayed_at":null,"tle_current":{"epoch":"2026-09-20T22:17:52.803168Z","epoch_age_seconds":118377,"freshness":"FRESH","line1":"1 58932U 24027B   26263.92908337  .00009951  00000+0  33250-3 0  9991","line2":"2 58932  53.1595 121.1066 0001688 104.7712 255.3477 15.31652586147242","mean_motion":15.31652586,"eccentricity":0.0001688,"inclination_deg":53.1595,"raan_deg":121.1066,"arg_perigee_deg":104.7712,"mean_anomaly_deg":255.3477,"bstar":0.0003325,"rev_number":14724,"period_min":94.016098243313,"perigee_km":469.72522324311,"apogee_km":472.03745183387,"semimajor_km":6849.0183375385,"source":"CELESTRAK","updated_at":"2026-09-21T09:00:33.995985Z"}}}